[[{"header":{"parameterUnit":"m.s-1","parameterCategory":1,"la1":30.2991,"la2":30.254,"lo1":-89.0895,"lo2":-89.0444,"dy":0.0017,"dx":0.0017,"nx":28,"ny":28,"refTime":"2025-05-28T03:00:00:Z","depth":0,"parameterNumber":2,"parameterNumberName":"U-component_of_WINDS"},"data":[0,0,0,0,0,0,0,0,0,0,0,0,0,0,0,0,0,0,0,0,0,0,0,0,0,0,0,0,0,0,0,0,0,0,0,0,0,0,0,0,0,0,0,0,0,0,0,0,0,0,0,0,0,0,0,0,0,0,3.9619,3.9622,0,3.9867,3.987,3.9872,3.9942,3.9941,3.9939,3.9938,4.0184,4.0192,4.0199,0,0,0,0,0,0,0,0,0,0,0,0,0,3.9195,3.9202,3.9619,3.9622,3.9625,3.9866,3.987,3.9873,3.9942,3.9941,3.9939,3.9937,4.0181,4.0191,4.02,0,0,0,0,0,0,0,0,0,0,0,0,0,3.9404,3.9205,3.9618,3.9689,3.9698,3.9866,3.987,3.9874,3.9943,3.9941,3.9939,3.9937,4.0178,4.019,4.0201,4.0315,0,0,4.0237,4.0242,0,0,0,0,0,0,0,0,3.9392,3.942,3.9675,3.9684,3.9694,3.9872,3.9811,4.0022,3.9943,3.9849,3.9938,3.9936,4.0081,4.0101,4.0152,4.0326,4.0337,4.0238,4.0245,4.025,4.0254,0,0,0,0,0,0,0,3.9378,3.9409,3.9717,3.9679,3.9691,3.9705,3.9732,3.9851,3.9973,3.9857,3.9863,3.9892,4.0086,4.014,4.0158,4.034,4.0238,4.0248,4.0256,4.026,4.0614,4.0616,0,0,0,0,0,0,3.9352,3.9397,3.9709,3.9724,3.9536,3.9714,3.9745,3.9817,3.9972,3.9994,3.9893,3.9894,4.0121,4.0144,4.0167,4.0306,4.025,4.0261,4.0268,4.0612,4.0614,4.0617,0,0,0,0,0,0,3.9343,3.938,3.9699,3.9562,3.9604,3.9724,3.9804,3.9823,3.9877,4.0,4.0021,3.9927,4.012,4.015,4.0277,4.0316,4.0267,4.0277,4.0609,4.0612,4.0616,4.0587,0,0,0,0,0,0,3.9331,3.9376,3.9423,3.9563,3.9611,3.9808,3.9806,3.9829,3.9898,3.9901,4.0037,4.0057,4.0121,4.0259,4.0288,4.0331,4.0286,4.0606,4.061,4.0615,4.0585,4.059,4.0593,0,0,0,0,0,3.9315,3.9405,3.9425,3.9462,3.9673,3.981,3.9837,3.9912,3.9901,3.9947,4.0025,4.0053,4.0307,4.0271,4.0305,4.0352,4.0604,4.0609,4.0614,4.0584,4.0589,4.0593,0,0,0,0,0,0,3.9265,3.9425,3.9449,3.9587,3.9685,3.9822,3.9883,3.9915,4.0016,4.0015,4.01,4.0129,4.0249,4.0313,4.0271,4.0466,4.0455,4.0467,4.042,4.0426,4.043,4.0411,4.0296,0,0,0,0,0,3.9271,3.9372,3.9504,3.9613,3.9661,3.9763,3.9826,3.9874,3.9977,4.0018,4.0106,4.0203,4.0304,4.0369,4.0469,4.0595,4.0622,4.0643,4.0647,4.0649,4.0658,4.0724,4.0734,4.0634,4.0634,4.0634,0,0,3.9282,3.9382,3.944,3.9605,3.9687,3.9785,3.9797,3.9903,3.9976,4.0034,4.0158,4.0225,4.0338,4.0463,4.0523,4.0521,4.0692,4.0656,4.0657,4.0665,4.0731,4.074,4.0748,4.0638,4.0637,4.0637,0,0,3.9353,3.9441,3.9539,3.9619,3.9742,3.9809,3.9832,3.9964,4.0011,4.0138,4.0182,4.0268,4.0442,4.0519,4.0581,4.0676,4.0703,4.0706,4.0725,4.0789,4.0797,4.0804,4.0834,4.0844,4.0715,4.0715,4.0715,0,3.9351,3.9505,3.9584,3.9687,3.9755,3.9814,3.9911,3.9984,4.0133,4.0177,4.0173,4.0389,4.047,4.0612,4.0634,4.0684,4.0709,4.0691,4.079,4.0798,4.0806,4.0835,4.0846,4.0714,4.0714,4.0714,4.0714,0,3.9494,3.96,3.9663,3.9806,3.9882,3.9981,4.0071,4.0139,4.0179,4.0244,4.0369,4.0467,4.0586,4.0624,4.0664,4.077,4.0764,4.0774,4.0764,4.0813,4.0842,4.0854,4.0713,4.0713,4.0713,4.0714,0,0,3.9543,3.9725,3.9747,3.981,3.9948,4.003,4.0128,4.0247,4.03,4.0399,4.0482,4.0625,4.0634,4.0704,4.0753,4.0809,4.0872,4.0812,4.0815,4.0816,4.0989,4.0979,4.0992,4.0891,4.0894,4.0896,4.0978,0,3.9629,3.9811,3.9883,4.0029,4.0124,4.0179,4.0264,4.0356,4.0418,4.0505,4.0574,4.0673,4.0679,4.0721,4.0779,4.0852,4.0907,4.0848,4.0965,4.0968,4.0933,4.1007,4.0999,4.1072,4.0991,4.0993,4.0994,0,3.9754,3.9855,4.0011,4.0133,4.0175,4.0252,4.0363,4.0447,4.0549,4.059,4.0667,4.0712,4.0813,4.0797,4.0934,4.0892,4.0943,4.0986,4.099,4.1003,4.0983,4.1019,4.1098,4.1107,4.1013,4.1012,4.101,0,3.9769,3.9943,4.0058,4.0111,4.0257,4.0308,4.0371,4.0472,4.0537,4.0633,4.0675,4.078,4.0837,4.0916,4.0986,4.0969,4.1115,4.1107,4.1149,4.1147,4.1177,4.1173,4.1262,4.1213,4.1213,4.1213,4.1213,0,3.9856,3.9948,4.0066,4.0137,4.024,4.0319,4.0418,4.0484,4.0573,4.0653,4.0706,4.078,4.087,4.0954,4.1009,4.1112,4.1138,4.1171,4.1184,4.1166,4.1161,4.1199,4.1195,4.1216,4.1215,4.1215,4.1214,0,3.989,3.9973,4.0101,4.0228,4.0262,4.0332,4.0439,4.0507,4.0571,4.0673,4.0701,4.0801,4.0902,4.098,4.1112,4.1148,4.1256,4.1272,4.1222,4.1229,4.1265,4.126,4.138,4.1398,4.1339,4.1339,4.134,0,3.9939,4.0012,4.0146,4.0204,4.0267,4.0361,4.0427,4.0506,4.0572,4.0692,4.0744,4.085,4.0939,4.1097,4.1179,4.1278,4.1295,4.133,4.131,4.1287,4.1291,4.1285,4.1291,4.1332,4.1332,4.1332,4.1332,0,4.0016,4.0053,4.0147,4.0255,4.0332,4.042,4.0509,4.0553,4.0648,4.0718,4.0823,4.0892,4.1026,4.1128,4.1235,4.1296,4.1328,4.1338,4.1353,4.1333,4.13,4.1315,4.1226,4.1335,4.1335,4.1334,4.1334,4.1334,4.0058,4.0122,4.0226,4.0328,4.0403,4.0484,4.0553,4.0625,4.0715,4.0831,4.0872,4.0979,4.1074,4.1222,4.1283,4.1365,4.1366,4.1388,4.1393,4.1397,4.1393,4.1289,4.1385,4.1385,4.1385,4.1385,4.1385,0,4.0134,4.0203,4.0296,4.0418,4.0497,4.0523,4.0621,4.0685,4.0779,4.0867,4.0953,4.107,4.1169,4.1257,4.1359,4.1407,4.1424,4.1431,4.1427,4.1439,4.1388,4.1364,4.1415,4.1415,4.1415,4.1415,4.1415,4.1415,4.0183,4.0293,4.0341,4.0487,4.0555,4.0662,4.0715,4.0788,4.0858,4.0988,4.1071,4.1129,4.1215,4.1323,4.1413,4.1436,4.1469,4.1471,4.1498,4.1448,4.1444,4.144,4.1418,4.1479,4.1479,4.1542,4.1543,4.1543]},{"header":{"parameterUnit":"m.s-1","parameterCategory":1,"la1":30.2991,"la2":30.254,"lo1":-89.0895,"lo2":-89.0444,"dy":0.0017,"dx":0.0017,"nx":28,"ny":28,"refTime":"2025-05-28T03:00:00:Z","depth":0,"parameterNumber":3,"parameterNumberName":"V-component_of_WINDS"},"data":[0,0,0,0,0,0,0,0,0,0,0,0,0,0,0,0,0,0,0,0,0,0,0,0,0,0,0,0,0,0,0,0,0,0,0,0,0,0,0,0,0,0,0,0,0,0,0,0,0,0,0,0,0,0,0,0,0,0,4.5577,4.5581,0,4.5971,4.5976,4.598,4.5953,4.5947,4.5941,4.5936,4.6355,4.6372,4.6388,0,0,0,0,0,0,0,0,0,0,0,0,0,4.4812,4.4826,4.5576,4.5581,4.5586,4.5971,4.5976,4.5982,4.5954,4.5947,4.594,4.5933,4.635,4.637,4.639,0,0,0,0,0,0,0,0,0,0,0,0,0,4.5169,4.4831,4.5575,4.5618,4.5626,4.597,4.5976,4.5983,4.5956,4.5947,4.5938,4.593,4.6343,4.6368,4.6392,4.6723,0,0,4.6469,4.648,0,0,0,0,0,0,0,0,4.5149,4.5198,4.5607,4.5616,4.5625,4.5903,4.586,4.6232,4.5958,4.5831,4.5935,4.5925,4.6213,4.6248,4.6342,4.6743,4.6761,4.6471,4.6486,4.6497,4.6504,0,0,0,0,0,0,0,4.5124,4.5181,4.5733,4.5613,4.5624,4.5622,4.5663,4.5931,4.6068,4.5841,4.584,4.5887,4.6217,4.6318,4.6352,4.6767,4.647,4.6492,4.6508,4.6518,4.7459,4.7469,0,0,0,0,0,0,4.5088,4.516,4.572,4.5745,4.536,4.5643,4.5689,4.5823,4.6064,4.6092,4.5894,4.5884,4.628,4.6323,4.6367,4.6769,4.6497,4.652,4.6534,4.7449,4.7461,4.7472,0,0,0,0,0,0,4.5072,4.5138,4.5705,4.5452,4.5524,4.5666,4.5817,4.5836,4.5937,4.6103,4.6129,4.5971,4.6275,4.6331,4.6634,4.6784,4.6531,4.6554,4.7438,4.7453,4.7467,4.7578,0,0,0,0,0,0,4.505,4.5132,4.5256,4.5455,4.5537,4.5961,4.5826,4.585,4.5979,4.5969,4.6183,4.6211,4.6272,4.6596,4.6658,4.6813,4.6574,4.7425,4.7444,4.7462,4.7561,4.7595,4.7623,0,0,0,0,0,4.5023,4.5276,4.5263,4.5331,4.5695,4.597,4.6018,4.6079,4.5991,4.6119,4.6225,4.6204,4.6757,4.6628,4.6697,4.6862,4.7416,4.7439,4.7461,4.7547,4.7588,4.7622,0,0,0,0,0,0,4.5097,4.5302,4.5291,4.5614,4.5774,4.5964,4.6128,4.612,4.6312,4.6296,4.6369,4.6418,4.6721,4.6822,4.6674,4.7195,4.7075,4.7113,4.7117,4.7158,4.7188,4.7158,4.6594,0,0,0,0,0,4.5149,4.5351,4.5522,4.5791,4.5871,4.5986,4.6108,4.6141,4.6311,4.638,4.6509,4.668,4.6891,4.703,4.7235,4.7575,4.7623,4.7723,4.7754,4.7779,4.7811,4.7999,4.8045,4.7546,4.7546,4.7546,0,0,4.5263,4.54,4.5524,4.581,4.5937,4.6148,4.6043,4.6271,4.6429,4.6417,4.6708,4.6809,4.7004,4.7326,4.7475,4.742,4.7959,4.7807,4.7826,4.7845,4.8027,4.8074,4.8115,4.7562,4.7559,4.7556,0,0,4.5577,4.5701,4.5938,4.6067,4.6259,4.6333,4.639,4.6582,4.6647,4.6939,4.6933,4.7125,4.7489,4.7628,4.7746,4.8111,4.8099,4.8176,4.8339,4.8521,4.856,4.8595,4.8725,4.8771,4.8207,4.8208,4.8208,0,4.5696,4.6008,4.6063,4.6291,4.6418,4.641,4.6653,4.6777,4.7029,4.7119,4.7052,4.7506,4.7638,4.7992,4.808,4.8177,4.8246,4.8153,4.8549,4.8585,4.8619,4.8744,4.8793,4.8216,4.8215,4.8214,4.8213,0,4.6144,4.6362,4.6531,4.6768,4.6914,4.7149,4.7242,4.7385,4.7405,4.7487,4.7786,4.7942,4.8177,4.8264,4.8288,4.8623,4.8582,4.8532,4.8413,4.8673,4.8792,4.8841,4.8227,4.8225,4.8222,4.822,0,0,4.6518,4.6779,4.6841,4.6948,4.7159,4.733,4.7566,4.7791,4.7911,4.8086,4.8287,4.8593,4.8547,4.8681,4.8721,4.8881,4.9159,4.8811,4.8817,4.887,4.9538,4.9575,4.9629,4.9152,4.9161,4.9169,4.9521,0,4.6854,4.7265,4.7321,4.7688,4.789,4.7885,4.809,4.8244,4.8327,4.8515,4.8608,4.8824,4.8746,4.8827,4.8984,4.9092,4.9295,4.9067,4.9343,4.9352,4.9294,4.9691,4.9732,5.0057,4.9568,4.9576,4.9582,0,4.7301,4.7481,4.7866,4.8048,4.8135,4.8318,4.8528,4.8706,4.8881,4.8931,4.9079,4.9098,4.9346,4.9215,4.9559,4.9402,4.9519,4.9588,4.9603,4.9632,4.9483,4.9732,5.0163,5.0211,4.9656,4.965,4.9645,0,4.7535,4.7875,4.8149,4.8241,4.846,4.8588,4.8687,4.8852,4.8984,4.9169,4.9255,4.9469,4.9586,4.9753,4.983,4.9728,5.0169,5.0045,5.022,5.0218,5.0314,5.0307,5.077,5.0388,5.0387,5.0386,5.0385,0,4.7905,4.8141,4.8256,4.8425,4.869,4.8752,4.9014,4.9109,4.9256,4.9446,4.9457,4.9635,4.9726,4.992,4.9983,5.0257,5.0311,5.036,5.0374,5.036,5.0353,5.0437,5.0417,5.0399,5.0396,5.0394,5.0392,0,4.8212,4.8298,4.8596,4.8777,4.8828,4.9016,4.9173,4.9339,4.9418,4.9658,4.9718,4.9846,5.0074,5.0167,5.0449,5.0491,5.0807,5.0804,5.0746,5.075,5.0919,5.0902,5.1453,5.1529,5.1096,5.11,5.1103,0,4.8443,4.8623,4.8822,4.8947,4.9047,4.925,4.9382,4.9451,4.9589,4.9801,4.9942,5.0168,5.0352,5.0718,5.0838,5.1054,5.1056,5.1234,5.1089,5.1068,5.1059,5.1047,5.1066,5.1261,5.1266,5.1269,5.1272,0,4.8843,4.8876,4.9063,4.9267,4.9423,4.9588,4.9748,4.9851,4.9946,5.0101,5.0331,5.0474,5.0757,5.0983,5.1204,5.131,5.1309,5.1316,5.1368,5.1356,5.1315,5.1339,5.0819,5.1304,5.1301,5.1298,5.1297,5.1295,4.912,4.928,4.9443,4.9652,4.9779,4.9928,5.0091,5.019,5.0381,5.0614,5.0644,5.0891,5.1062,5.1358,5.1472,5.1669,5.1623,5.1698,5.1718,5.1735,5.1746,5.1281,5.1709,5.1709,5.1708,5.1707,5.1707,0,4.9521,4.9625,4.9816,5.0038,5.0203,5.018,5.0357,5.0497,5.0713,5.087,5.1049,5.1314,5.1532,5.1668,5.1888,5.2019,5.2024,5.2075,5.2067,5.2091,5.1774,5.1707,5.2067,5.2067,5.2067,5.2067,5.2066,5.2066,4.9749,5.0018,5.007,5.0402,5.0506,5.0744,5.0846,5.0985,5.111,5.1403,5.1582,5.1667,5.1817,5.2047,5.2247,5.2281,5.2363,5.2417,5.2449,5.2151,5.2113,5.2078,5.2015,5.2434,5.2434,5.2749,5.2752,5.2754]}]]